Lincoln County, Oregon, United States
Lat: 44.65N, Lon: 123.85W
Wx Zone: ORZ004
Local Info
Past Weather Observations for Yesterday

NOTE: This archive is for the closest National Weather Service station to Lincoln County. Information may differ from the station used for current weather conditions.

Click here for Long-term Archive

Time Weather Temperature Dewpoint Humidity Pressure Winds Precip Visibility
23:55
Partly Cloudy
46°F / 8°C 45°F / 7°C 93% 29.89 in
(1012 mb)
SSE 9.2 mph
(SSE 15 kph)
0.01 in
(0.25 mm)
10SM
23:35
Partly Cloudy
46°F / 8°C 46°F / 8°C 100% 29.92 in
(1013 mb)
S 9.2 mph
(S 15 kph)
0.01 in
(0.25 mm)
10SM
23:15
Partly Cloudy
46°F / 8°C 45°F / 7°C 93% 29.92 in
(1013 mb)
SSE 9.2 mph
(SSE 15 kph)
0.01 in
(0.25 mm)
10SM
22:55
Partly Cloudy
48°F / 9°C 46°F / 8°C 94% 29.89 in
(1012 mb)
SSE 8.1 mph
(SSE 13 kph)
0.04 in
(1.02 mm)
10SM
22:35
Overcast
Light Rain
48°F / 9°C 46°F / 8°C 94% 29.89 in
(1012 mb)
SSE 9.2 mph
(SSE 15 kph)
0.04 in
(1.02 mm)
7SM
22:15
Overcast
Light Rain
50°F / 10°C 46°F / 8°C 88% 29.89 in
(1012 mb)
S 11.5 mph
(S 19 kph)
0.02 in
(0.51 mm)
5SM
21:55
Overcast
Light Rain
50°F / 10°C 46°F / 8°C 88% 29.89 in
(1012 mb)
SW 15 mph
(SW 24 kph)
0.11 in
(2.79 mm)
5SM
21:35
Overcast
Rain
50°F / 10°C 48°F / 9°C 94% 29.89 in
(1012 mb)
SW 13.8 mph
(SW 22 kph)
0.09 in
(2.29 mm)
4SM
21:15
Overcast
Rain
50°F / 10°C 46°F / 8°C 88% 29.89 in
(1012 mb)
SSE 15 mph
(SSE 24 kph)
0.03 in
(0.76 mm)
4SM
20:55
Overcast
Rain
50°F / 10°C 46°F / 8°C 88% 29.86 in
(1011 mb)
SW 15 mph
(SW 24 kph)
0.06 in
(1.52 mm)
5SM
20:35
Overcast
Rain
50°F / 10°C 50°F / 10°C 100% 29.83 in
(1010 mb)
SW 6.9 mph
(SW 11 kph)
0.03 in
(0.76 mm)
5SM
20:15
Overcast
Light Rain
50°F / 10°C 50°F / 10°C 100% 29.83 in
(1010 mb)
SW 10.4 mph
(SW 17 kph)
0.02 in
(0.51 mm)
5SM
19:55
Overcast
Rain
52°F / 11°C 50°F / 10°C 94% 29.83 in
(1010 mb)
SW 12.7 mph
(SW 20 kph)
0.21 in
(5.33 mm)
3SM
19:35
Overcast
Rain
52°F / 11°C 50°F / 10°C 94% 29.83 in
(1010 mb)
SW 21.9 mph
(SW 35 kph)
0.12 in
(3.05 mm)
4SM
19:15
Overcast
Rain
52°F / 11°C 50°F / 10°C 94% 29.77 in
(1008 mb)
S 13.8 mph
(S 22 kph)
0.04 in
(1.02 mm)
7SM
18:55
Overcast
Light Rain
52°F / 11°C 50°F / 10°C 94% 29.77 in
(1008 mb)
SSE 9.2 mph
(SSE 15 kph)
0.09 in
(2.29 mm)
10SM
18:35
Overcast
Light Rain
52°F / 11°C 50°F / 10°C 94% 29.8 in
(1009 mb)
SSE 6.9 mph
(SSE 11 kph)
0.06 in
(1.52 mm)
7SM
18:15
Overcast
Light Rain
52°F / 11°C 50°F / 10°C 94% 29.8 in
(1009 mb)
SSE 9.2 mph
(SSE 15 kph)
0.02 in
(0.51 mm)
5SM
17:55
Overcast
Rain
52°F / 11°C 50°F / 10°C 94% 29.8 in
(1009 mb)
SSE 8.1 mph
(SSE 13 kph)
- 5SM
17:35
Overcast
Fog And Mist
52°F / 11°C 50°F / 10°C 94% 29.8 in
(1009 mb)
SSE 9.2 mph
(SSE 15 kph)
- 5SM
17:15
Overcast
52°F / 11°C 50°F / 10°C 94% 29.8 in
(1009 mb)
S 10.4 mph
(S 17 kph)
- 10SM
16:55
Overcast
Rain
52°F / 11°C 50°F / 10°C 94% 29.8 in
(1009 mb)
S 16.1 mph
(S 26 kph)
- 5SM
16:35
Overcast
Drizzle
52°F / 11°C 50°F / 10°C 94% 29.83 in
(1010 mb)
S 18.4 mph
(S 30 kph)
- 4SM
16:15
Overcast
Drizzle
52°F / 11°C 50°F / 10°C 94% 29.83 in
(1010 mb)
S 17.3 mph
(S 28 kph)
- 5SM
15:55
Overcast
54°F / 12°C 48°F / 9°C 82% 29.83 in
(1010 mb)
S 33.4 mph
(S 54 kph)
- 7SM
15:35
Overcast
54°F / 12°C 50°F / 10°C 88% 29.83 in
(1010 mb)
S 26.5 mph
(S 43 kph)
- 7SM
15:15
Overcast
Drizzle
54°F / 12°C 50°F / 10°C 88% 29.83 in
(1010 mb)
S 10.4 mph
(S 17 kph)
- 10SM
14:55
Overcast
Drizzle
54°F / 12°C 50°F / 10°C 88% 29.83 in
(1010 mb)
S 13.8 mph
(S 22 kph)
- 7SM
14:35
Mostly Cloudy
Drizzle
54°F / 12°C 50°F / 10°C 88% 29.83 in
(1010 mb)
S 16.1 mph
(S 26 kph)
- 7SM
14:15
Mostly Cloudy
Light Rain
54°F / 12°C 50°F / 10°C 88% 29.83 in
(1010 mb)
S 20.7 mph
(S 33 kph)
- 7SM
13:55
Mostly Cloudy
Drizzle
55°F / 13°C 50°F / 10°C 82% 29.83 in
(1010 mb)
S 19.6 mph
(S 32 kph)
- 7SM
13:35
Mostly Cloudy
55°F / 13°C 50°F / 10°C 82% 29.86 in
(1011 mb)
SSE 17.3 mph
(SSE 28 kph)
- 7SM
13:15
Mostly Cloudy
55°F / 13°C 50°F / 10°C 82% 29.86 in
(1011 mb)
SSE 20.7 mph
(SSE 33 kph)
- 10SM
12:55
Clear
55°F / 13°C 50°F / 10°C 82% N/A S 25.3 mph
(S 41 kph)
- 10SM
12:35
Partly Cloudy
55°F / 13°C 50°F / 10°C 82% 29.89 in
(1012 mb)
S 21.9 mph
(S 35 kph)
- 10SM
12:15
Partly Cloudy
55°F / 13°C 50°F / 10°C 82% 29.89 in
(1012 mb)
S 21.9 mph
(S 35 kph)
- 10SM
11:55
Mostly Cloudy
55°F / 13°C 50°F / 10°C 82% 29.89 in
(1012 mb)
S 27.6 mph
(S 44 kph)
- 10SM
11:35
Overcast
55°F / 13°C 50°F / 10°C 82% 29.89 in
(1012 mb)
S 17.3 mph
(S 28 kph)
- 10SM
11:15
Overcast
54°F / 12°C 50°F / 10°C 88% 29.92 in
(1013 mb)
S 13.8 mph
(S 22 kph)
- 10SM
10:55
Overcast
54°F / 12°C 50°F / 10°C 88% 29.92 in
(1013 mb)
S 11.5 mph
(S 19 kph)
- 10SM
10:35
Mostly Cloudy
54°F / 12°C 50°F / 10°C 88% N/A S 11.5 mph
(S 19 kph)
- 10SM
10:15
Mostly Cloudy
54°F / 12°C 50°F / 10°C 88% 29.92 in
(1013 mb)
SSE 11.5 mph
(SSE 19 kph)
- 10SM
09:55
Overcast
Light Rain
52°F / 11°C 48°F / 9°C 88% 29.95 in
(1014 mb)
S 11.5 mph
(S 19 kph)
- 7SM
09:35
Mostly Cloudy
Light Rain
52°F / 11°C 48°F / 9°C 88% 29.95 in
(1014 mb)
SSE 10.4 mph
(SSE 17 kph)
- 10SM
09:15
Mostly Cloudy
52°F / 11°C 46°F / 8°C 82% 29.95 in
(1014 mb)
SSE 10.4 mph
(SSE 17 kph)
- 10SM
08:55
Overcast
52°F / 11°C 46°F / 8°C 82% 29.95 in
(1014 mb)
SSE 8.1 mph
(SSE 13 kph)
- 10SM
08:35
Overcast
50°F / 10°C 46°F / 8°C 88% 29.92 in
(1013 mb)
SSE 9.2 mph
(SSE 15 kph)
- 10SM
08:15
Overcast
50°F / 10°C 46°F / 8°C 88% 29.92 in
(1013 mb)
SSE 9.2 mph
(SSE 15 kph)
- 10SM
07:55
Overcast
50°F / 10°C 46°F / 8°C 88% 29.92 in
(1013 mb)
SSE 6.9 mph
(SSE 11 kph)
- 10SM
07:35
Mostly Cloudy
50°F / 10°C 46°F / 8°C 88% 29.92 in
(1013 mb)
SE 9.2 mph
(SE 15 kph)
- 10SM
07:15
Mostly Cloudy
50°F / 10°C 46°F / 8°C 88% 29.92 in
(1013 mb)
SE 6.9 mph
(SE 11 kph)
- 10SM
06:55
Mostly Cloudy
50°F / 10°C 46°F / 8°C 88% 29.92 in
(1013 mb)
SE 8.1 mph
(SE 13 kph)
- 10SM
06:35
Mostly Cloudy
50°F / 10°C 46°F / 8°C 88% 29.95 in
(1014 mb)
SE 9.2 mph
(SE 15 kph)
- 10SM
06:15
Mostly Cloudy
46°F / 8°C 45°F / 7°C 93% 29.95 in
(1014 mb)
SE 6.9 mph
(SE 11 kph)
- 10SM
05:55
Mostly Cloudy
46°F / 8°C 45°F / 7°C 93% 29.92 in
(1013 mb)
ESE 6.9 mph
(ESE 11 kph)
- 10SM
05:35
Overcast
46°F / 8°C 45°F / 7°C 93% 29.92 in
(1013 mb)
E 5.8 mph
(E 9 kph)
- 10SM
05:15
Mostly Cloudy
46°F / 8°C 45°F / 7°C 93% 29.95 in
(1014 mb)
E 8.1 mph
(E 13 kph)
- 10SM
04:55
Overcast
46°F / 8°C 45°F / 7°C 93% 29.95 in
(1014 mb)
E 9.2 mph
(E 15 kph)
- 10SM
04:35
Overcast
46°F / 8°C 45°F / 7°C 93% 29.95 in
(1014 mb)
E 9.2 mph
(E 15 kph)
- 10SM
04:15
Overcast
46°F / 8°C 45°F / 7°C 93% 29.95 in
(1014 mb)
E 6.9 mph
(E 11 kph)
- 10SM
03:55
Overcast
46°F / 8°C 45°F / 7°C 93% 29.98 in
(1015 mb)
ESE 3.5 mph
(ESE 6 kph)
- 10SM
03:35
Mostly Cloudy
45°F / 7°C 45°F / 7°C 100% 29.98 in
(1015 mb)
E 4.6 mph
(E 7 kph)
- 10SM
03:15
Overcast
46°F / 8°C 45°F / 7°C 93% 29.98 in
(1015 mb)
Calm - 10SM
02:55
Partly Cloudy
45°F / 7°C 45°F / 7°C 100% N/A E 4.6 mph
(E 7 kph)
- 10SM
02:35
Clear
45°F / 7°C 45°F / 7°C 100% 29.98 in
(1015 mb)
E 8.1 mph
(E 13 kph)
- 10SM
02:15
Partly Cloudy
45°F / 7°C 45°F / 7°C 100% 29.98 in
(1015 mb)
E 6.9 mph
(E 11 kph)
- 10SM
01:55
Mostly Cloudy
46°F / 8°C 45°F / 7°C 93% 29.98 in
(1015 mb)
E 6.9 mph
(E 11 kph)
- 10SM
01:35
Mostly Cloudy
46°F / 8°C 45°F / 7°C 93% 29.98 in
(1015 mb)
E 6.9 mph
(E 11 kph)
- 10SM
01:15
Overcast
Drizzle
46°F / 8°C 45°F / 7°C 93% 29.98 in
(1015 mb)
ESE 3.5 mph
(ESE 6 kph)
- 10SM
00:55
Overcast
Light Rain
46°F / 8°C 46°F / 8°C 100% 29.98 in
(1015 mb)
SSE 3.5 mph
(SSE 6 kph)
- 10SM
00:35
Overcast
46°F / 8°C 45°F / 7°C 93% 29.98 in
(1015 mb)
Calm - 10SM
00:15
Mostly Cloudy
46°F / 8°C 46°F / 8°C 100% 29.98 in
(1015 mb)
SE 4.6 mph
(SE 7 kph)
- 10SM
Time Weather Temperature Dewpoint Humidity Pressure Winds Precip Visibility


Weather for websites

WeatherForYou.com, LLC is not responsible for any damages or problems caused by this service. Current weather conditions are obtained from the closest station including government and personal stations which may have varying degrees of accuracy. Weather forecasts are derived from the NOAA NDFD. Like all things, this site belongs to Jesus Christ... He just trusts me to maintain it. If you have any questions or comments email webmaster@weatherforyou.com

Copyright © 2014, WeatherForYou.com LLC. All rights reserved.